Winner, SD

3:55 PM CDT on September 24, 2016 (GMT -0500)
Winner

Weather History for KICR - October, 2012

Change the Weather History Date:

Tuesday, October 9, 2012

  Actual Average Record
Temperature  
Mean Temperature 42 °F 54 °F  
Max Temperature 52 °F 66 °F 71 °F (2015)
Min Temperature 32 °F 41 °F 32 °F (2012)
Degree Days  
Heating Degree Days 23 12  
Month to date heating degree days 148 95  
Since 1 July heating degree days 206 237  
Cooling Degree Days 0 1  
Month to date cooling degree days 0 9  
Year to date cooling degree days 1468 915  
Moisture  
Dew Point 28 °F    
Average Humidity 58    
Maximum Humidity 86    
Minimum Humidity 29    
Precipitation  
Precipitation T in 0.05 in 1.29 in (2011)
Month to date precipitation 0.01 0.53  
Year to date precipitation 10.12 19.52  
Sea Level Pressure  
Sea Level Pressure 30.04 in    
Wind  
Wind Speed 16 mph (WNW)    
Max Wind Speed 31 mph    
Max Gust Speed 39 mph    
Visibility 10 miles    
Events Rain    
T = Trace of Precipitation, MM = Missing Value Source: NWS Daily Summary

Daily Weather History Graph

Daily Weather History Graph

Search for Another Location

Airport or City:

Trip Planner

Search our weather history database for the weather conditions in past years. The results will help you decide how hot, cold, wet, or windy it might be!

Date:

Astronomy

Oct. 09, 2012 Rise Set
Actual Time 7:46 AM CDT 7:05 PM CDT
Civil Twilight 7:18 AM CDT 7:34 PM CDT
Nautical Twilight 6:45 AM CDT 8:07 PM CDT
Astronomical Twilight 6:11 AM CDT 8:40 PM CDT
Moon 1:14 AM CDT (10/9) 3:43 PM CDT (10/9)
Length of Visible Light 12h 15m
Length of Day
11h 18m
Last Quarter, 36% of the Moon is Illuminated
Oct 9
Last Quarter
Oct 15
New
Oct 21
First Quarter
Oct 29
Full
Nov 6
Last Quarter

Hourly Weather History & Observations

Time (CDT) Temp. Windchill Dew Point Humidity Pressure Visibility Wind Dir Wind Speed Gust Speed Precip Events Conditions
12:53 AM 50.0 °F - 42.1 °F 74% 29.86 in 10.0 mi West 9.2 mph - N/A   Overcast
1:53 AM 48.0 °F - 45.0 °F 89% 29.88 in 10.0 mi West 11.5 mph - 0.00 in Rain Light Rain
3:53 AM 46.9 °F - 43.0 °F 86% 29.88 in 10.0 mi WNW 16.1 mph 24.2 mph 0.00 in   Overcast
4:53 AM 46.0 °F 39.6 °F 43.0 °F 89% 29.91 in 10.0 mi WNW 15.0 mph - 0.00 in   Overcast
5:53 AM 46.0 °F 39.0 °F 41.0 °F 83% 29.95 in 10.0 mi NNW 17.3 mph - 0.00 in Rain Light Rain
6:53 AM 42.1 °F 34.2 °F 34.0 °F 73% 29.98 in 10.0 mi NW 16.1 mph 25.3 mph 0.00 in   Overcast
7:53 AM 41.0 °F 33.5 °F 30.9 °F 67% 30.00 in 10.0 mi WNW 13.8 mph - N/A   Scattered Clouds
8:53 AM 39.9 °F 32.1 °F 28.0 °F 63% 30.03 in 10.0 mi WNW 13.8 mph - N/A   Clear
9:53 AM 45.0 °F 37.6 °F 30.0 °F 56% 30.03 in 10.0 mi WNW 17.3 mph - N/A   Clear
10:53 AM 46.9 °F - 28.9 °F 50% 30.05 in 10.0 mi NW 25.3 mph 33.4 mph N/A   Partly Cloudy
11:53 AM 50.0 °F - 28.0 °F 43% 30.05 in 10.0 mi NNW 26.5 mph 33.4 mph N/A   Scattered Clouds
12:53 PM 48.9 °F - 25.0 °F 39% 30.06 in 10.0 mi NW 28.8 mph 36.8 mph N/A   Scattered Clouds
1:53 PM 52.0 °F - 24.1 °F 34% 30.05 in 10.0 mi NW 19.6 mph 34.5 mph N/A   Clear
2:53 PM 48.9 °F - 23.0 °F 36% 30.06 in 10.0 mi WNW 25.3 mph 32.2 mph N/A   Overcast
3:53 PM 50.0 °F - 23.0 °F 35% 30.07 in 10.0 mi NW 26.5 mph 31.1 mph N/A   Mostly Cloudy
4:53 PM 50.0 °F - 21.0 °F 32% 30.07 in 10.0 mi NW 19.6 mph 29.9 mph N/A   Mostly Cloudy
5:53 PM 50.0 °F - 19.0 °F 29% 30.08 in 10.0 mi NW 25.3 mph 32.2 mph N/A   Scattered Clouds
6:53 PM 46.0 °F 39.9 °F 19.0 °F 34% 30.11 in 10.0 mi NNW 13.8 mph - N/A   Partly Cloudy
7:53 PM 41.0 °F 38.0 °F 19.0 °F 41% 30.14 in 10.0 mi NW 4.6 mph - N/A   Clear
8:53 PM 37.0 °F 32.4 °F 18.0 °F 46% 30.16 in 10.0 mi NW 5.8 mph - N/A   Clear
9:53 PM 36.0 °F 30.3 °F 19.0 °F 50% 30.18 in 10.0 mi WSW 6.9 mph - N/A   Mostly Cloudy
10:53 PM 37.9 °F 34.4 °F 19.0 °F 47% 30.19 in 10.0 mi WSW 4.6 mph - N/A   Clear
11:53 PM 36.0 °F 31.1 °F 19.0 °F 50% 30.18 in 10.0 mi WSW 5.8 mph - N/A   Clear